Theta_e
316 318 320 322 325 323 322 321 318 319 320 318 318 319 321 322 319 325 335 339 339 339 339 337 336 334 335 337 338 337 332 334 333 332 330 328 327 327 327 327 327 331 332 335 334 332 330 328 326
317 318 320 321 324 323 320 319 319 319 321 320 321 324 325 329 330 335 339 338 339 339 339 339 335 332 335 337 337 337 331 331 333 333 331 330 327 324 323 324 326 329 330 332 331 330 327 325 323
318 317 325 324 323 321 319 319 319 321 321 320 322 322 325 329 330 337 335 338 339 339 339 339 332 331 334 336 337 337 331 331 333 333 332 332 330 324 321 322 324 326 327 328 327 325 322 321 322
319 319 318 322 322 319 319 318 318 322 317 315 321 324 324 325 331 331 338 338 339 339 339 334 331 333 334 334 337 337 334 334 334 333 332 331 329 326 321 320 322 323 324 325 323 320 316 313 314
316 320 322 322 321 318 316 316 320 319 317 319 321 323 326 325 327 333 339 339 339 339 338 335 333 333 334 331 334 336 335 333 333 333 331 328 327 326 324 320 319 319 320 320 318 315 310 311 312
322 319 322 322 320 317 316 316 320 318 316 318 318 322 325 324 328 334 339 340 339 339 338 338 335 334 333 329 332 335 335 333 333 332 330 328 325 325 325 324 322 319 318 317 315 313 309 310 311
322 322 322 320 319 318 317 316 319 318 317 318 319 322 321 324 330 333 338 340 339 339 338 338 338 335 333 330 330 333 335 334 332 330 330 327 325 324 323 323 323 320 318 316 310 305 304 304 307
319 321 320 318 318 319 316 316 315 317 317 314 319 319 320 324 329 333 337 339 339 340 339 338 338 337 336 335 331 331 333 334 332 331 328 326 325 323 322 321 320 319 317 314 312 310 308 305 307
312 319 320 319 318 318 314 316 311 311 315 316 316 315 316 325 328 332 335 335 336 337 339 338 338 338 338 337 334 332 332 333 333 330 328 326 328 327 327 323 319 318 316 315 314 312 312 311 312
317 319 318 316 316 317 315 315 314 315 315 316 315 312 312 325 330 334 335 335 335 336 336 338 338 338 338 337 335 335 335 334 334 333 330 331 331 329 327 323 319 318 317 314 313 313 312 312 314
313 317 312 314 313 314 315 313 313 315 316 317 317 316 313 326 330 334 335 335 335 334 334 335 337 337 337 336 334 333 335 336 335 334 333 332 331 326 326 321 319 318 317 314 312 311 310 311 312
314 312 313 315 315 314 314 314 314 314 318 314 315 315 314 324 328 332 334 335 335 334 333 333 334 336 335 334 334 334 334 334 333 333 332 330 330 328 326 325 320 318 317 316 314 311 309 309 308
314 313 312 314 313 313 311 314 315 314 315 312 311 311 314 319 326 328 332 334 334 331 331 330 335 335 334 333 333 333 334 333 332 333 332 331 330 329 327 325 322 320 319 319 318 314 310 308 304
314 314 314 314 314 314 315 315 314 316 315 312 312 313 314 316 321 326 328 331 332 330 329 327 333 334 331 332 331 332 332 333 334 332 332 331 330 329 329 326 323 321 320 319 319 316 312 307 301
312 316 315 314 314 315 313 315 315 316 312 314 314 314 313 313 316 321 323 326 329 327 326 324 329 329 329 329 328 330 331 331 331 334 333 332 330 329 330 327 324 322 320 319 318 315 311 307 297
315 316 317 314 313 314 314 317 316 311 313 315 316 315 314 313 313 315 318 322 323 323 321 323 327 327 326 323 324 328 329 329 330 332 333 331 331 330 330 328 325 322 320 318 317 315 308 300 296
316 316 317 316 313 314 315 318 316 311 311 314 315 315 315 314 312 311 314 315 316 315 314 315 318 317 316 316 318 321 328 327 329 332 334 331 331 330 330 328 325 321 319 317 315 312 307 297 294
316 317 315 316 314 313 316 316 316 315 312 315 316 316 315 313 314 312 310 311 313 312 311 311 311 312 314 315 316 316 318 325 326 328 329 328 330 331 330 328 324 322 317 316 313 311 299 296 292
314 315 315 314 312 315 316 317 316 316 316 315 315 316 316 316 315 312 311 309 309 310 310 311 311 312 314 314 315 315 317 323 324 325 326 326 327 331 330 327 323 320 318 315 312 307 296 293 291
314 316 316 315 312 313 316 316 316 316 316 316 317 317 317 317 316 313 310 309 308 309 309 310 311 312 313 313 314 314 313 320 322 324 325 324 327 329 328 326 321 321 313 310 309 305 295 293 292
314 316 315 315 313 312 314 316 317 316 314 314 315 315 316 316 316 316 311 309 308 308 309 309 310 311 312 313 313 309 313 316 318 319 322 324 324 326 326 325 323 319 314 311 310 303 298 294 293
315 313 314 314 315 316 313 314 315 315 315 314 315 316 316 315 315 314 313 309 308 308 308 308 309 310 311 312 310 310 313 313 313 318 321 321 321 323 319 323 322 318 315 310 307 303 300 296 295
315 311 313 313 316 316 316 316 314 313 314 315 316 316 317 316 315 314 312 310 309 307 307 308 308 309 310 311 310 311 313 314 314 317 319 317 318 320 320 320 319 315 314 309 305 302 299 297 298
311 314 314 315 317 317 315 316 314 314 315 315 315 315 316 315 314 312 310 308 307 306 306 307 308 308 309 309 310 310 312 313 309 313 313 313 314 314 315 316 314 313 310 307 304 302 299 298 297
313 316 316 319 321 318 314 316 315 314 313 313 315 315 314 312 312 312 311 307 305 304 305 306 307 307 308 308 309 310 311 310 309 309 309 310 309 309 312 312 310 309 305 302 301 300 298 298 297
314 316 316 320 318 314 311 316 316 315 313 312 312 313 313 310 312 312 312 309 306 304 305 306 306 307 307 306 308 308 310 308 308 308 307 307 310 314 313 311 307 304 299 299 300 300 299 297 294
314 315 314 315 308 314 313 314 314 313 312 312 313 314 315 313 312 312 311 308 305 304 305 305 305 305 306 305 307 307 307 306 306 306 306 306 309 310 311 308 303 298 296 300 300 299 297 290 288
313 313 316 315 322 319 313 314 315 315 315 316 313 313 314 313 313 312 310 307 304 304 304 304 305 305 305 304 305 305 303 304 306 306 304 305 306 306 307 305 299 293 292 293 293 290 288 288 287
313 314 314 314 316 318 317 314 314 315 315 314 314 313 314 313 312 311 309 305 303 303 303 304 304 304 304 303 304 303 302 304 305 304 303 302 303 305 304 301 296 291 289 288 288 288 287 287 287
312 314 314 316 318 315 316 317 311 313 314 313 314 312 312 311 310 308 307 304 303 302 303 303 304 304 304 302 303 302 301 300 302 302 302 300 302 302 301 298 290 288 288 288 287 287 287 287 286
Wind_Speed
8 5 1 2 4 3 2 4 0 7 6 2 2 3 1 3 2 3 10 11 14 16 16 16 14 14 13 13 15 15 15 16 16 17 18 17 17 18 18 18 18 19 19 19 20 20 20 20 21
5 3 1 1 4 4 3 4 7 6 3 7 5 3 3 3 3 8 12 12 18 16 17 16 16 15 14 14 15 14 13 16 17 17 18 18 17 18 18 19 19 19 19 19 19 20 20 20 21
1 1 2 1 2 5 1 6 7 5 8 4 4 1 0 4 6 16 7 17 17 16 15 16 18 18 16 15 16 15 13 15 17 17 17 18 17 18 19 19 20 20 19 19 19 21 20 21 21
2 3 3 4 5 1 2 7 6 11 3 4 2 2 2 1 11 6 13 18 17 16 15 17 18 17 16 16 16 15 13 16 17 16 17 17 18 19 19 20 20 20 20 20 20 20 20 21 21
2 1 3 1 3 2 2 3 11 10 5 6 5 4 3 5 4 6 13 19 19 17 16 18 19 18 17 16 15 16 13 15 16 16 17 18 18 18 19 19 19 20 20 21 20 20 21 22 22
2 1 3 6 3 2 2 6 10 6 4 5 4 7 5 5 8 10 14 19 18 18 17 17 19 17 15 16 16 15 14 14 15 16 16 17 18 19 19 19 19 19 20 20 20 20 21 22 23
1 3 5 1 2 3 4 8 10 8 5 5 1 6 3 9 11 12 16 17 17 16 17 17 17 16 15 15 15 15 15 16 15 15 15 16 18 18 18 19 19 20 20 20 19 20 21 22 23
3 1 3 3 5 4 6 10 3 8 5 2 2 4 4 16 14 14 16 16 16 16 17 17 17 16 15 15 15 14 14 16 15 16 16 16 16 17 16 17 17 19 19 19 20 20 21 23 24
1 4 6 4 6 3 8 9 3 1 3 4 5 2 3 15 15 17 16 15 15 16 18 18 18 16 15 14 14 14 14 14 15 15 15 16 13 14 12 14 16 17 18 19 19 20 21 23 23
3 4 5 1 3 3 8 9 8 6 7 5 5 7 4 14 17 22 22 22 20 19 19 19 19 17 16 16 15 15 15 15 16 16 17 12 13 12 13 14 15 16 18 18 19 20 20 18 16
2 6 2 3 2 3 6 6 6 7 8 11 13 11 12 18 19 23 24 25 25 22 20 21 19 20 17 18 18 17 15 15 16 18 17 15 13 14 13 15 16 17 16 17 16 14 12 14 13
3 1 2 4 2 2 4 3 6 11 9 2 8 6 17 19 22 26 26 26 25 24 22 21 22 23 22 21 20 20 19 18 17 17 21 21 19 18 17 12 14 17 16 16 13 12 14 15 16
2 4 3 2 3 3 1 7 7 11 13 4 3 8 14 18 23 24 23 23 23 23 22 22 25 24 24 24 23 21 21 21 21 22 23 22 21 21 20 17 17 17 18 16 16 16 16 16 15
2 2 1 2 3 2 4 4 3 5 8 11 9 11 12 17 22 20 22 25 25 23 23 21 25 26 23 24 23 22 25 19 24 23 26 27 25 24 22 21 21 21 19 19 17 17 18 17 15
2 2 3 5 2 2 2 8 16 10 2 9 13 12 12 16 18 26 28 28 26 25 22 24 26 25 24 24 22 20 27 24 24 26 25 27 29 26 25 24 24 22 21 21 20 19 20 18 15
1 1 3 3 3 2 4 12 4 2 8 14 14 12 13 15 22 23 23 25 25 24 25 26 29 28 26 23 20 21 23 29 29 28 28 26 28 26 28 27 27 25 23 23 22 23 23 17 15
1 4 6 3 4 1 8 8 3 1 5 12 13 14 14 14 17 23 25 26 25 25 24 26 28 27 26 24 21 21 26 23 27 29 29 28 29 29 30 30 31 30 26 25 25 26 23 19 17
6 5 4 6 3 4 9 17 17 11 8 12 13 13 13 16 20 24 25 26 25 25 25 24 26 25 24 21 20 19 28 28 26 28 29 28 29 32 32 34 36 33 27 27 28 27 19 19 20
3 2 5 3 1 4 12 19 18 17 16 18 18 19 18 20 21 20 23 25 25 26 26 28 27 26 24 22 20 17 28 31 31 29 29 29 30 31 34 36 37 33 32 30 32 29 25 21 22
5 9 12 7 2 5 12 22 19 19 22 19 20 21 21 21 18 19 20 23 28 30 30 29 30 28 29 24 23 16 20 30 30 29 29 30 31 34 36 38 37 33 32 31 34 33 26 18 24
9 12 9 9 1 7 10 16 15 10 15 17 21 23 23 24 23 17 18 24 25 30 32 34 31 29 27 24 20 18 22 24 27 30 31 31 33 36 37 39 40 38 34 35 35 35 30 24 24
14 12 9 6 4 6 2 10 18 17 17 15 17 17 20 20 19 16 16 20 27 32 30 29 29 29 28 27 25 26 29 24 25 33 31 31 31 34 35 38 40 39 36 33 35 37 29 25 25
3 5 7 2 5 5 9 7 8 4 13 16 19 19 19 17 14 13 16 23 26 25 29 29 28 29 29 31 28 28 25 25 25 30 32 32 32 33 33 35 33 34 35 31 33 34 27 25 23
12 7 5 3 1 8 10 10 10 11 8 5 6 9 10 10 9 9 9 9 13 15 21 25 29 30 30 31 32 31 30 26 22 32 34 34 32 33 34 34 34 34 36 33 33 36 31 25 20
4 8 3 5 5 10 3 6 15 7 11 10 12 17 5 3 5 5 5 8 11 15 18 21 26 29 30 30 31 31 30 29 27 29 32 37 34 34 36 35 35 35 35 31 30 34 30 28 24
12 10 7 7 5 8 2 10 8 10 10 14 14 18 11 9 7 8 7 7 11 13 17 20 23 25 28 29 29 27 27 27 26 28 27 34 37 41 39 38 36 35 34 31 30 31 31 26 22
7 11 10 7 0 4 10 20 21 15 16 16 18 14 14 10 10 11 9 11 10 12 16 20 21 22 25 29 29 29 29 28 28 30 30 31 36 39 39 39 38 36 33 32 33 32 30 25 22
10 7 5 5 6 10 14 15 15 6 11 10 7 10 12 11 10 9 7 7 7 11 14 16 18 21 22 26 29 29 29 28 32 34 32 34 35 37 39 40 38 37 35 33 32 30 29 27 24
6 12 5 3 5 6 9 12 11 14 9 7 7 6 7 7 5 6 4 4 6 9 12 15 18 20 22 24 27 28 28 34 35 35 31 33 35 37 38 40 39 39 37 34 33 33 31 29 27
10 19 22 8 8 5 8 15 2 5 4 6 8 6 4 5 3 2 3 4 8 11 14 16 18 20 22 24 26 28 28 30 35 36 34 33 37 38 40 42 41 41 39 37 36 36 34 32 30
Wind_Direction
322 328 23 202 238 261 174 163 25 154 177 133 130 221 276 39 349 49 136 159 157 159 170 175 172 163 155 146 133 120 111 103 100 96 93 91 89 87 86 87 88 90 90 91 89 89 80 75 72
330 330 40 117 255 265 151 151 197 164 92 127 134 145 183 96 103 128 141 158 158 158 160 168 169 166 160 150 140 131 121 111 105 100 96 92 90 91 89 90 91 91 93 93 92 85 82 80 80
356 60 265 354 273 275 260 183 155 121 128 162 152 301 21 114 128 146 137 155 159 161 161 166 167 168 161 155 151 142 127 118 110 104 101 97 95 92 92 92 94 95 95 96 92 89 86 84 83
207 170 115 256 272 295 329 166 149 145 191 205 211 174 169 97 145 153 155 162 161 164 163 168 169 168 165 158 156 148 134 124 116 112 107 100 95 94 93 94 96 95 96 97 94 93 93 91 91
35 199 215 223 255 291 240 172 172 167 155 165 181 163 151 163 164 157 163 168 167 166 169 170 169 172 169 165 163 155 143 132 130 123 113 104 100 97 95 97 97 97 98 97 96 94 94 94 94
168 295 232 250 224 203 227 176 175 192 165 145 198 161 147 162 171 163 164 169 172 169 169 171 173 175 171 169 165 161 152 145 139 130 122 113 107 105 103 101 98 97 97 97 97 95 94 96 97
212 221 242 261 248 230 185 164 190 191 180 195 151 182 133 185 175 166 165 171 177 177 173 174 176 178 175 174 171 168 164 156 150 142 134 127 120 114 112 109 104 101 100 99 100 100 99 98 100
110 254 176 202 220 225 159 172 199 206 195 106 221 208 170 184 173 167 171 177 180 184 183 181 179 178 178 178 177 173 171 168 159 154 146 137 127 120 116 112 110 107 107 106 104 103 103 104 106
145 223 237 225 195 201 154 193 153 101 192 202 197 262 78 159 164 169 173 181 186 187 189 187 185 185 185 181 182 181 179 175 169 164 157 141 132 127 118 132 119 116 113 111 109 110 107 107 110
204 230 229 172 229 236 180 202 173 189 193 222 220 194 154 169 175 181 186 189 193 192 189 191 192 191 191 186 189 188 182 180 176 170 167 161 152 143 137 139 134 126 120 116 115 114 114 104 104
142 244 159 180 236 275 195 213 179 209 212 218 217 194 178 183 190 194 197 197 196 194 192 192 192 195 194 199 197 198 196 192 189 183 177 173 164 160 147 146 138 132 126 118 116 112 109 110 108
206 147 174 130 179 212 219 166 205 218 224 116 216 184 177 190 198 201 201 201 197 196 196 196 198 201 203 205 207 211 211 207 204 195 192 188 182 178 171 169 168 152 142 132 125 117 115 111 109
203 160 175 131 170 237 197 236 242 239 233 190 149 184 197 202 207 209 209 206 202 201 198 200 201 202 203 206 213 212 214 215 213 212 202 200 198 194 187 185 175 166 150 147 139 138 131 119 113
80 181 177 188 187 230 255 259 245 241 233 217 215 215 211 212 212 207 208 208 206 203 203 201 205 207 208 208 210 213 217 219 220 216 211 208 204 202 195 193 181 172 164 152 148 149 142 128 123
92 239 275 219 171 230 257 246 240 243 184 228 227 231 225 221 213 214 213 211 207 207 204 205 209 212 213 214 215 214 217 221 222 219 217 213 209 205 202 195 186 180 174 162 156 155 148 136 124
163 221 235 132 181 141 204 261 256 229 232 245 240 237 233 230 223 223 219 216 213 209 208 211 214 215 217 218 216 216 215 222 223 220 217 219 215 213 204 196 190 183 175 168 161 160 151 135 133
208 238 224 273 185 205 219 273 272 197 228 258 252 249 243 245 236 228 220 217 213 211 210 212 214 214 215 216 216 219 216 211 221 215 212 214 217 217 212 201 190 184 175 171 166 162 163 146 137
206 217 223 248 134 221 241 253 266 256 243 258 265 262 249 246 239 232 222 218 214 213 212 212 212 212 212 213 210 215 216 211 212 213 213 216 219 215 212 203 193 183 179 173 170 168 155 150 142
124 209 247 236 146 261 255 266 266 271 268 260 259 257 253 250 246 234 223 215 211 212 210 211 209 209 203 202 201 208 210 214 214 214 216 219 221 216 210 203 193 185 185 176 176 170 155 153 149
215 253 257 279 200 231 278 277 276 265 259 255 258 256 252 253 245 232 220 214 211 212 212 211 212 207 205 205 203 210 202 209 213 211 213 217 217 212 208 203 193 190 187 180 178 173 160 165 167
225 235 248 264 323 236 291 272 262 259 257 261 257 255 258 253 253 242 219 216 214 214 211 211 210 208 207 203 199 202 202 208 207 209 209 213 211 211 207 202 199 192 193 187 186 179 174 168 184
241 213 235 255 285 272 272 288 280 276 264 248 258 250 250 249 250 250 233 217 215 218 215 213 210 208 207 202 202 203 201 200 205 208 207 209 211 211 206 201 200 197 196 192 190 187 185 177 181
237 131 180 179 242 306 213 256 260 263 269 256 250 254 256 258 254 242 231 229 223 216 210 212 210 208 206 203 207 205 204 208 213 208 205 204 200 201 203 203 206 206 201 198 194 189 190 192 187
139 96 78 83 242 264 243 230 261 253 248 276 260 259 261 267 255 249 255 242 233 222 211 207 208 212 209 206 207 207 204 201 197 202 203 204 203 200 202 203 205 208 205 202 199 198 196 191 194
209 170 207 223 198 249 82 238 250 262 260 242 273 288 293 243 249 244 223 211 210 206 212 214 206 210 211 212 211 210 209 205 203 196 200 201 200 200 200 202 204 207 208 206 200 198 197 199 205
197 200 212 229 214 262 110 239 259 233 274 283 272 267 276 263 240 246 228 217 213 205 204 207 213 211 210 212 213 212 210 209 209 204 200 203 206 208 204 203 203 205 206 203 198 197 200 204 201
179 217 249 267 137 293 250 264 273 239 257 240 256 266 276 266 240 249 240 221 205 204 209 208 210 214 212 212 210 208 205 206 206 211 211 211 211 210 207 204 202 202 202 198 194 196 199 195 190
213 152 190 213 227 236 252 259 256 279 294 272 254 268 283 266 250 244 245 233 212 210 204 208 213 216 215 214 211 209 208 207 213 217 213 214 214 213 207 204 203 200 199 196 193 191 188 184 178
185 215 218 235 220 245 258 255 259 256 261 281 303 305 305 309 258 222 224 205 218 220 221 209 209 211 211 212 212 210 205 208 213 214 213 215 216 214 209 205 202 198 195 191 188 187 182 179 176
237 226 210 215 211 244 267 263 162 255 246 305 320 298 285 310 292 289 260 231 219 222 220 218 215 211 213 209 209 211 207 204 208 212 214 214 215 214 209 204 200 196 193 189 187 184 182 181 177